FW7308 Weather Reports


time (UTC)temp
C
wind
direction
speed
KPH
gust
KPH
rain 1hr
cm
rain 24hr
cm
rain mn
cm
humidity
%
barometer
mb
20260904171235 25 281 6.4 9.7 0.00 0.00 0.00 60 1013.7
20260904170734 24 340 11.3 17.7 0.00 0.00 0.00 62 1013.3
20260904170235 24 281 11.3 14.5 0.00 0.00 0.00 65 1013.7
20260904165233 -17 0.0 0.0 0.00 0.00 0.00 1013.7
20260904164732 24 12 6.4 9.7 0.00 0.00 0.00 64 1013.7
20260904164234 24 12 6.4 9.7 0.00 0.00 0.00 64 1013.8
20260904163733 25 331 8.0 11.3 0.00 0.00 0.00 64 1013.7
20260904163232 25 6 9.7 16.1 0.00 0.00 0.00 61 1013.7
20260904162731 25 6 9.7 16.1 0.00 0.00 0.00 61 1013.8
20260904162232 24 328 3.2 3.2 0.00 0.00 0.00 65 1013.8
20260904161732 24 356 16.1 17.7 0.00 0.00 0.00 63 1014.0
20260904161231 23 336 4.8 4.8 0.00 0.00 0.00 65 1013.8
20260904160730 23 336 4.8 4.8 0.00 0.00 0.00 65 1014.0
20260904160231 24 316 3.2 3.2 0.00 0.00 0.00 64 1013.8
20260904155732 23 349 4.8 8.0 0.00 0.00 0.00 66 1014.0
20260904155231 23 323 16.1 24.1 0.00 0.00 0.00 67 1014.0
20260904154831 24 315 9.7 11.3 0.00 0.00 0.00 68 1014.0
20260904154230 23 2 4.8 4.8 0.00 0.00 0.00 68 1014.0
20260904153729 23 265 4.8 9.7 0.00 0.00 0.00 68 1014.0
20260904153228 23 317 8.0 12.9 0.00 0.00 0.00 68 1014.0
20260904152727 23 307 3.2 3.2 0.00 0.00 0.00 70 1014.0
20260904152229 23 288 6.4 8.0 0.00 0.00 0.00 71 1014.0
20260904151728 23 354 4.8 8.0 0.00 0.00 0.00 72 1014.4
20260904151227 23 337 12.9 14.5 0.00 0.00 0.00 72 1014.2
20260904150726 23 356 4.8 8.0 0.00 0.00 0.00 74 1014.4
20260904150227 22 326 3.2 4.8 0.00 0.00 0.00 76 1014.4
20260904145726 22 339 3.2 4.8 0.00 0.00 0.00 76 1014.2
20260904145226 23 329 0.0 4.8 0.00 0.00 0.00 76 1014.0
20260904144725 22 327 3.2 4.8 0.00 0.00 0.00 78 1014.4
20260904144226 23 311 4.8 9.7 0.00 0.00 0.00 76 1014.2
20260904143725 22 321 1.6 4.8 0.00 0.00 0.00 78 1014.2
20260904143224 22 327 1.6 1.6 0.00 0.00 0.00 82 1014.4
20260904142723 22 335 8.0 11.3 0.00 0.00 0.00 79 1014.4
20260904142227 22 333 3.2 4.8 0.00 0.00 0.00 82 1014.4
20260904141824 23 320 3.2 9.7 0.00 0.00 0.00 79 1014.4
20260904141224 22 331 1.6 3.2 0.00 0.00 0.00 81 1014.4
20260904140723 22 331 1.6 3.2 0.00 0.00 0.00 81 1014.4
20260904140223 21 325 1.6 3.2 0.00 0.00 0.00 85 1014.4
20260904135723 22 304 4.8 4.8 0.00 0.00 0.00 85 1014.4
20260904135222 22 355 8.0 11.3 0.00 0.00 0.00 84 1014.4
20260904134721 21 329 0.0 1.6 0.00 0.00 0.00 86 1014.5
20260904134222 21 334 1.6 1.6 0.00 0.00 0.00 86 1014.4
20260904133721 21 334 1.6 1.6 0.00 0.00 0.00 86 1014.4
20260904133221 21 326 4.8 4.8 0.00 0.00 0.00 87 1014.4
20260904132720 21 0.0 0.0 0.00 0.00 0.00 87 1014.4
20260904132221 20 326 1.6 1.6 0.00 0.00 0.00 87 1014.4
20260904131720 20 346 6.4 8.0 0.00 0.00 0.00 87 1014.4
20260904131219 20 335 6.4 8.0 0.00 0.00 0.00 88 1014.0
20260904130721 20 333 0.0 1.6 0.00 0.00 0.00 90 1014.4
20260904125720 20 338 3.2 4.8 0.00 0.00 0.00 90 1014.4
20260904125218 20 327 4.8 8.0 0.00 0.00 0.00 89 1014.4
20260904124717 19 334 6.4 9.7 0.00 0.00 0.00 90 1014.4
20260904124219 20 332 3.2 3.2 0.00 0.00 0.00 90 1014.2
20260904123718 19 328 1.6 1.6 0.00 0.00 0.00 92 1014.4
20260904123217 19 330 3.2 3.2 0.00 0.00 0.00 92 1014.4
20260904122716 19 342 4.8 8.0 0.00 0.00 0.00 91 1014.4
20260904122217 19 331 0.0 1.6 0.00 0.00 0.00 92 1014.0
20260904121717 18 341 4.8 8.0 0.00 0.00 0.00 92 1014.4
20260904121246 18 331 1.6 3.2 0.00 0.00 0.00 94 1014.0
20260904120746 18 337 3.2 4.8 0.00 0.00 0.00 96 1014.0
20260904115245 18 0.0 0.0 0.00 0.00 0.00 99 1014.0
20260904114744 17 0.0 0.0 0.00 0.00 0.00 99 1014.0
20260904114345 16 0.0 0.0 0.00 0.00 0.00 99 1014.0
20260904113745 16 0.0 0.0 0.00 0.00 0.00 99 1014.0
20260904113343 15 0.0 0.0 0.00 0.00 0.00 99 1014.0
20260904112742 15 0.0 0.0 0.00 0.00 0.00 99 1013.8
20260904112241 15 0.0 0.0 0.00 0.00 0.00 99 1014.0
20260904111743 15 0.0 0.0 0.00 0.00 0.00 99 1013.7
20260904111242 15 0.0 0.0 0.00 0.00 0.00 99 1014.0
20260904110741 15 0.0 0.0 0.00 0.00 0.00 99 1013.7
20260904110242 15 0.0 0.0 0.00 0.00 0.00 99 1013.7
20260904105741 15 333 3.2 3.2 0.00 0.00 0.00 99 1013.7
20260904105242 15 327 3.2 3.2 0.00 0.00 0.00 99 1013.7
20260904104239 14 329 3.2 4.8 0.00 0.00 0.00 99 1013.7
20260904103740 14 325 3.2 3.2 0.00 0.00 0.00 99 1013.7
20260904102739 14 323 1.6 1.6 0.00 0.00 0.00 99 1013.7
20260904102239 14 327 3.2 3.2 0.00 0.00 0.00 99 1013.7
20260904101739 14 329 3.2 3.2 0.00 0.00 0.00 99 1013.5
20260904101238 14 327 1.6 1.6 0.00 0.00 0.00 99 1013.3
20260904100737 14 325 1.6 1.6 0.00 0.00 0.00 99 1013.3
20260904100236 14 326 0.0 1.6 0.00 0.00 0.00 99 1013.5
20260904095737 14 323 3.2 3.2 0.00 0.00 0.00 99 1013.3
20260904095237 14 325 3.2 3.2 0.00 0.00 0.00 99 1013.3
20260904094736 15 317 3.2 3.2 0.00 0.00 0.00 99 1013.3
20260904094237 14 323 3.2 3.2 0.00 0.00 0.00 99 1013.3
20260904093736 14 321 1.6 1.6 0.00 0.00 0.00 99 1013.3
20260904093235 15 322 1.6 1.6 0.00 0.00 0.00 99 1013.3
20260904092734 15 321 3.2 3.2 0.00 0.00 0.00 99 1013.3
20260904092234 15 323 3.2 3.2 0.00 0.00 0.00 99 1013.3
20260904091735 15 326 3.2 3.2 0.00 0.00 0.00 99 1013.3
20260904091234 15 331 4.8 4.8 0.00 0.00 0.00 99 1013.3
20260904090733 15 318 3.2 4.8 0.00 0.00 0.00 99 1013.3
20260904090232 15 332 3.2 3.2 0.00 0.00 0.00 99 1013.3
20260904085733 15 319 3.2 3.2 0.00 0.00 0.00 99 1013.3
20260904085233 15 325 3.2 3.2 0.00 0.00 0.00 99 1013.3
20260904084732 15 323 3.2 3.2 0.00 0.00 0.00 99 1013.3
20260904084231 15 319 3.2 3.2 0.00 0.00 0.00 99 1013.3
20260904083732 15 320 3.2 3.2 0.00 0.00 0.00 99 1013.3
20260904083232 15 321 3.2 3.2 0.00 0.00 0.00 99 1013.3
20260904082731 15 325 3.2 3.2 0.00 0.00 0.00 99 1013.3
20260904082230 15 317 3.2 3.2 0.00 0.00 0.00 99 1013.3
20260904081829 15 322 3.2 3.2 0.00 0.00 0.00 99 1013.3
20260904081231 15 325 1.6 1.6 0.00 0.00 0.00 99 1013.3
20260904080731 15 326 1.6 1.6 0.00 0.00 0.00 99 1013.3
20260904080229 15 325 0.0 1.6 0.00 0.00 0.00 99 1013.3
20260904075729 15 0.0 0.0 0.00 0.00 0.00 99 1013.3
20260904075229 15 326 1.6 1.6 0.00 0.00 0.00 99 1013.3
20260904074728 15 323 1.6 1.6 0.00 0.00 0.00 99 1013.3
20260904074227 15 323 1.6 1.6 0.00 0.00 0.00 99 1013.3
20260904073228 15 324 3.2 3.2 0.00 0.00 0.00 99 1013.7
20260904072727 15 326 1.6 3.2 0.00 0.00 0.00 99 1013.5
20260904072226 15 322 3.2 3.2 0.00 0.00 0.00 99 1013.7
20260904071727 15 322 1.6 3.2 0.00 0.00 0.00 99 1013.7
20260904071226 15 328 1.6 3.2 0.00 0.00 0.00 99 1013.7
20260904070726 15 0.0 0.0 0.00 0.00 0.00 99 1013.7
20260904070225 15 322 1.6 3.2 0.00 0.00 0.00 99 1013.7
20260904065724 15 326 1.6 1.6 0.00 0.00 0.00 99 1013.7
20260904065225 15 329 3.2 3.2 0.00 0.00 0.00 99 1013.7
20260904064724 15 326 1.6 3.2 0.00 0.00 0.00 99 1013.7
20260904064224 15 325 1.6 1.6 0.00 0.00 0.00 99 1013.7
20260904063723 15 327 1.6 1.6 0.00 0.00 0.00 99 1013.8
20260904063224 15 322 1.6 3.2 0.00 0.00 0.00 99 1013.7
20260904062732 15 329 3.2 3.2 0.00 0.00 0.00 99 1013.7
20260904062223 15 322 1.6 3.2 0.00 0.00 0.00 99 1013.7
20260904061722 15 320 3.2 3.2 0.00 0.00 0.00 99 1014.0
20260904061222 15 327 1.6 1.6 0.00 0.00 0.00 99 1014.0
20260904060723 15 326 1.6 1.6 0.00 0.00 0.00 99 1014.0
20260904060224 15 325 3.2 3.2 0.00 0.00 0.00 99 1014.0
20260904055721 15 322 3.2 3.2 0.00 0.00 0.00 99 1014.0
20260904055220 15 325 3.2 3.2 0.00 0.00 0.00 99 1014.2
20260904054721 15 324 1.6 1.6 0.00 0.00 0.00 99 1014.2
20260904054220 15 324 3.2 3.2 0.00 0.00 0.00 99 1014.4
20260904053719 15 323 1.6 1.6 0.00 0.00 0.00 99 1014.4
20260904053218 15 321 1.6 3.2 0.00 0.00 0.00 99 1014.5
20260904052719 15 324 1.6 3.2 0.00 0.00 0.00 99 1014.7
20260904052239 15 324 1.6 3.2 0.00 0.00 0.00 99 1014.4
20260904051217 16 324 3.2 3.2 0.00 0.00 0.00 99 1014.7
20260904050717 16 325 3.2 3.2 0.00 0.00 0.00 99 1014.7
20260904050217 16 327 3.2 3.2 0.00 0.00 0.00 99 1014.7
20260904045717 16 323 1.6 3.2 0.00 0.00 0.00 99 1014.7
20260904045216 16 323 3.2 3.2 0.00 0.00 0.00 99 1014.7
20260904044717 16 323 1.6 3.2 0.00 0.00 0.00 99 1014.9
20260904044246 16 326 1.6 3.2 0.00 0.00 0.00 99 1015.1
20260904043745 16 322 1.6 1.6 0.00 0.00 0.00 99 1014.7
20260904043245 16 322 1.6 1.6 0.00 0.00 0.00 99 1014.7
20260904042745 16 324 1.6 1.6 0.00 0.00 0.00 99 1014.7
20260904042245 16 327 1.6 1.6 0.00 0.00 0.00 99 1014.7
20260904041747 16 325 1.6 1.6 0.00 0.00 0.00 99 1014.7
20260904041243 16 324 1.6 1.6 0.00 0.00 0.00 99 1015.1
20260904040745 16 0.0 0.0 0.00 0.00 0.00 99 1015.1
20260904040243 16 326 0.0 1.6 0.00 0.00 0.00 99 1014.7
20260904035744 16 324 1.6 1.6 0.00 0.00 0.10 99 1014.7
20260904033743 17 0.0 0.0 0.00 0.00 0.10 99 1015.1
20260904032740 17 323 1.6 1.6 0.00 0.00 0.10 99 1015.1
20260904032241 17 0.0 0.0 0.00 0.00 0.10 99 1015.1
20260904031740 17 331 1.6 1.6 0.00 0.00 0.10 99 1015.1
20260904031239 17 326 3.2 3.2 0.00 0.00 0.10 99 1015.1
20260904030742 17 336 3.2 3.2 0.00 0.00 0.10 99 1015.1
20260904030239 17 328 1.6 3.2 0.00 0.00 0.10 99 1015.1
20260904025739 18 322 1.6 3.2 0.00 0.00 0.10 99 1015.4
20260904024738 18 324 3.2 3.2 0.00 0.00 0.10 99 1015.1
20260904024239 18 325 3.2 3.2 0.00 0.00 0.10 99 1015.4
20260904013739 18 0.0 0.0 0.00 0.00 0.10 99 1015.4
20260904013233 18 0.0 0.0 0.00 0.00 0.10 99 1015.4
20260904012737 18 0.0 0.0 0.00 0.00 0.10 99 1015.4
20260904012235 18 323 1.6 1.6 0.00 0.00 0.10 99 1015.4
20260904011733 18 324 1.6 1.6 0.00 0.00 0.10 99 1015.4
20260904011232 18 322 1.6 3.2 0.00 0.00 0.10 99 1015.1
20260904010731 18 326 1.6 3.2 0.00 0.00 0.10 99 1015.4
20260904010236 18 320 3.2 3.2 0.00 0.00 0.10 99 1015.4
20260904005731 18 323 1.6 1.6 0.00 0.00 0.10 99 1015.4
20260904004730 18 321 1.6 3.2 0.00 0.00 0.10 99 1015.4
20260904004231 18 325 1.6 3.2 0.00 0.00 0.10 99 1015.4
20260904003731 18 328 3.2 3.2 0.00 0.00 0.10 99 1015.1
20260904003329 18 330 1.6 3.2 0.00 0.00 0.10 99 1015.1
20260904002829 18 322 1.6 3.2 0.00 0.00 0.10 99 1015.1
20260904002229 18 328 3.2 3.2 0.00 0.00 0.10 99 1015.1
20260904001729 18 326 1.6 3.2 0.00 0.00 0.10 99 1015.1
20260904001328 18 323 1.6 3.2 0.00 0.00 0.10 99 1015.1
20260904000727 19 329 1.6 3.2 0.00 0.00 0.10 99 1015.1
20260904000226 19 325 3.2 3.2 0.00 0.00 0.10 99 1014.7
20260903235728 19 0.0 0.0 0.00 0.00 0.10 99 1014.7
20260903235227 19 331 1.6 1.6 0.00 0.00 0.10 99 1014.7
20260903234726 19 329 1.6 3.2 0.00 0.00 0.10 99 1014.7
20260903234225 20 323 1.6 1.6 0.00 0.00 0.10 99 1014.4
20260903233724 20 326 1.6 1.6 0.00 0.00 0.10 99 1014.4
20260903233226 20 0.0 0.0 0.00 0.00 0.10 99 1014.4
20260903232725 20 325 1.6 1.6 0.00 0.00 0.10 99 1014.5
20260903232225 20 323 1.6 1.6 0.00 0.00 0.10 99 1014.4
20260903231723 20 322 1.6 1.6 0.00 0.00 0.10 99 1014.4
20260903231225 20 323 1.6 1.6 0.00 0.00 0.10 99 1014.4
20260903230724 20 326 1.6 1.6 0.00 0.00 0.10 99 1014.7
20260903230223 20 327 0.0 1.6 0.00 0.00 0.10 99 1014.7
20260903225827 20 323 3.2 3.2 0.00 0.00 0.10 99 1014.7
20260903225226 21 323 3.2 3.2 0.00 0.00 0.10 99 1014.7
20260903224722 21 0.0 0.0 0.00 0.00 0.10 99 1014.7
20260903223722 21 346 0.0 1.6 0.00 0.00 0.10 99 1014.7
20260903223224 21 331 0.0 1.6 0.00 0.00 0.10 99 1014.7
20260903222724 22 0.0 0.0 0.00 0.00 0.10 97 1014.4
20260903222220 22 0.0 0.0 0.00 0.00 0.10 97 1014.5
20260903221822 22 0.0 0.0 0.00 0.00 0.10 97 1014.7
20260903221321 23 0.0 0.0 0.00 0.00 0.10 93 1014.7
20260903220800 -17 0.0 0.0 0.00 0.00 0.10 1014.7
20260903210245 23 324 1.6 1.6 0.00 0.00 0.10 90 1014.7
20260903205744 23 324 1.6 1.6 0.00 0.00 0.10 90 1015.1
20260903195241 23 302 4.8 4.8 0.00 0.00 0.10 91 1015.1
20260903194740 22 263 4.8 8.0 0.00 0.00 0.10 92 1015.1
20260903194239 22 263 4.8 8.0 0.00 0.00 0.10 92 1015.4
20260903193738 22 125 8.0 11.3 0.00 0.00 0.10 94 1015.4
20260903193240 22 149 8.0 11.3 0.00 0.00 0.10 94 1015.4
20260903192739 22 283 4.8 4.8 0.00 0.00 0.10 94 1015.1
20260903192238 21 212 6.4 11.3 0.00 0.00 0.10 94 1015.4
20260903191739 21 33 6.4 8.0 0.00 0.00 0.10 94 1015.4
20260903191238 21 303 3.2 3.2 0.00 0.00 0.10 93 1015.4
20260903190737 21 303 3.2 3.2 0.00 0.00 0.10 93 1015.6
20260903190237 22 100 9.7 11.3 0.00 0.00 0.10 93 1015.4
20260903185736 21 283 4.8 4.8 0.00 0.00 0.10 94 1015.8
20260903185237 21 238 6.4 11.3 0.00 0.00 0.10 94 1015.8
20260903184839 21 89 6.4 9.7 0.00 0.00 0.10 95 1015.6
20260903184236 21 318 3.2 4.8 0.00 0.00 0.10 95 1015.8
20260903183902 21 292 3.2 3.2 0.00 0.00 0.10 95 1015.8
20260903183339 21 290 3.2 4.8 0.00 0.00 0.10 96 1015.8
20260903182735 21 289 4.8 8.0 0.00 0.00 0.10 97 1015.8
20260903182236 21 325 3.2 4.8 0.00 0.00 0.10 97 1016.1
20260903181734 21 285 4.8 4.8 0.00 0.00 0.10 97 1016.1
20260903180735 20 328 0.0 1.6 0.00 0.00 0.10 99 1015.8
20260903180234 20 297 3.2 4.8 0.00 0.00 0.10 99 1015.9
20260903175732 20 345 1.6 1.6 0.00 0.00 0.10 99 1016.1
20260903175235 20 339 1.6 1.6 0.00 0.00 0.10 99 1016.1
20260903174733 19 286 3.2 3.2 0.00 0.00 0.10 99 1016.1
20260903174232 19 273 3.2 4.8 0.00 0.00 0.10 99 1016.1
20260903173731 19 331 1.6 1.6 0.00 0.00 0.10 99 1016.1
20260903173234 18 334 1.6 3.2 0.00 0.00 0.10 99 1016.1
20260903172734 18 353 3.2 4.8 0.00 0.00 0.10 99 1016.1
20260903172231 18 294 3.2 4.8 0.00 0.00 0.10 99 1016.3
20260903171730 18 297 4.8 4.8 0.00 0.00 0.10 99 1016.1